Weather History for KSPW - February, 2012

Change the Weather History Date:

Friday, February 10, 2012

  Actual Average Record
Temperature  
Mean Temperature 11 °F -  
Max Temperature 19 °F 28 °F 61 °F (1977)
Min Temperature 1 °F 10 °F -25 °F (2014)
Degree Days  
Heating Degree Days 54    
Moisture  
Dew Point -5 °F    
Average Humidity 54    
Maximum Humidity 64    
Minimum Humidity 45    
Precipitation  
Precipitation 0.00 in - - ()
Sea Level Pressure  
Sea Level Pressure 30.39 in    
Wind  
Wind Speed 22 mph (NNW)    
Max Wind Speed 26 mph    
Max Gust Speed 34 mph    
Visibility 10 miles    
Events      
Averages and records for this station are not official NWS values.
T = Trace of Precipitation, MM = Missing Value Source: NWS Daily Summary

Daily Weather History Graph

Daily Weather History Graph

Search for Another Location

Airport or City:

Trip Planner

Search our weather history database for the weather conditions in past years. The results will help you decide how hot, cold, wet, or windy it might be!

Date:

Astronomy

Feb. 10, 2012 Rise Set
Actual Time 7:26 AM CST 5:44 PM CST
Civil Twilight 6:56 AM CST 6:14 PM CST
Nautical Twilight 6:22 AM CST 6:47 PM CST
Astronomical Twilight 5:49 AM CST 7:20 PM CST
Moon 9:32 PM CST (2/10) 8:28 AM CST (2/10)
Length of Visible Light 11h 17m
Length of Day
10h 18m
Waning Gibbous, 90% of the Moon is Illuminated
Feb 10
Waning Gibbous
Feb 14
Last Quarter
Feb 21
New
Feb 29
First Quarter
Mar 8
Full

Hourly Weather History & Observations

Time (CST) Temp. Windchill Dew Point Humidity Pressure Visibility Wind Dir Wind Speed Gust Speed Precip Events Conditions
12:53 AM 19.0 °F 2.4 °F 3.0 °F 50% 30.12 in 10.0 mi NNW 21.9 mph 31.1 mph N/A   Overcast
1:53 AM 12.9 °F -6.1 °F -0.0 °F 56% 30.14 in 10.0 mi NNW 23.0 mph 31.1 mph N/A   Clear
2:53 AM 10.9 °F -8.3 °F -0.9 °F 59% 30.16 in 10.0 mi NNW 21.9 mph 28.8 mph N/A   Clear
3:53 AM 10.0 °F -11.1 °F -2.9 °F 56% 30.17 in 10.0 mi NNW 26.5 mph 29.9 mph N/A   Clear
4:53 AM 9.0 °F -11.4 °F -2.9 °F 59% 30.20 in 10.0 mi North 23.0 mph 31.1 mph N/A   Clear
6:53 AM 7.0 °F -12.6 °F -2.9 °F 64% 30.27 in 10.0 mi NNW 19.6 mph - N/A   Clear
7:53 AM 6.1 °F -14.3 °F -4.0 °F 63% 30.30 in 10.0 mi NNW 20.7 mph 31.1 mph N/A   Clear
8:53 AM 3.9 °F -17.6 °F -6.0 °F 64% 30.32 in 10.0 mi North 21.9 mph 31.1 mph N/A   Clear
9:53 AM 3.9 °F -19.4 °F -7.1 °F 60% 30.35 in 10.0 mi North 26.5 mph 32.2 mph N/A   Clear
10:53 AM 7.0 °F -14.9 °F -6.0 °F 55% 30.37 in 10.0 mi North 25.3 mph 34.5 mph N/A   Clear
11:53 AM 9.0 °F -12.2 °F -5.1 °F 53% 30.38 in 10.0 mi NNW 25.3 mph 33.4 mph N/A   Clear
12:53 PM 10.9 °F -8.3 °F -5.1 °F 49% 30.38 in 10.0 mi North 21.9 mph 34.5 mph N/A   Clear
1:53 PM 12.0 °F -7.7 °F -4.0 °F 49% 30.40 in 10.0 mi North 24.2 mph 31.1 mph N/A   Clear
2:53 PM 12.9 °F -5.7 °F -5.1 °F 45% 30.42 in 10.0 mi North 21.9 mph 29.9 mph N/A   Clear
3:53 PM 12.9 °F -5.3 °F -5.1 °F 45% 30.45 in 10.0 mi North 20.7 mph 33.4 mph N/A   Clear
4:53 PM 10.9 °F -9.9 °F -6.0 °F 47% 30.47 in 10.0 mi NNW 26.5 mph 33.4 mph N/A   Clear
5:53 PM 10.0 °F -8.1 °F -6.0 °F 48% 30.50 in 10.0 mi North 18.4 mph 25.3 mph N/A   Clear
6:53 PM 8.1 °F -10.2 °F -7.1 °F 50% 30.53 in 10.0 mi NNW 17.3 mph - N/A   Clear
7:53 PM 7.0 °F -11.0 °F -8.0 °F 51% 30.56 in 10.0 mi North 16.1 mph - N/A   Clear
8:53 PM 5.0 °F -14.7 °F -7.1 °F 58% 30.59 in 10.0 mi North 18.4 mph 23.0 mph N/A   Clear
9:53 PM 5.0 °F -13.0 °F -8.0 °F 55% 30.63 in 10.0 mi North 15.0 mph 23.0 mph N/A   Clear
10:53 PM 3.0 °F -17.3 °F -9.0 °F 57% 30.64 in 10.0 mi North 18.4 mph - N/A   Clear
11:53 PM 1.9 °F -17.5 °F -9.0 °F 60% 30.66 in 10.0 mi North 16.1 mph - N/A   Clear